STARLINK-31813, 60128

Orbit data source: Space-Track

STARLINK-31813, 60128 is a payload satellite owned by SpaceX/Seattle (US) in LEO that was launched on Mon, 24 Jun 2024 UTC via an FALCON 9 launch vehicle from the Air Force Western Test Range (AFWTR). Payload-class satellites include a variety of spacecraft equipped with specific instruments for various scientific and technological missions. These include communications satellites like Starlink; space stations such as the ISS; scientific satellites like the Hubble; Earth observation satellites from companies like Planet Labs, Umbra, and HawkEye 360; GPS; miniature CubeSats for education and research; and military/defense satellites.

Loading next visibility...
Identifier
60128, 2024-118R
Orbit
LEO
Country
Flag of USUS
Related business
Manufacturer
SpaceX/Seattle
Mission
Operational Commercial Communications
Bus & Motor
STARLINK V2M, Unknown motor
Mass
730 kg wet, ~700 kg dry
Launch date (UTC)
2024-06-24 (2 years ago)
Launch vehicle
FALCON 9
Launch site
Air Force Western Test Range (AFWTR)
Object type
Payload
Rocket body
Debris
Shape & HBR
Box + 2 Pan, 17.7 m
Radar Cross Section
33.884 m², Large (>1 m²)

Expand to show TLE details & history
Last TLE update: 1 day ago

TLE from 1 day ago
0 STARLINK-31813
1 60128U 24118R   26126.26980113 -.00001142  00000-0 -25032-4 0  9996
2 60128  53.1615 119.1630 0001349  99.3652 260.7502 15.31692104104517
Epoch: 2026-05-06T06:28Z
TLE epoch observation values (Epoch: 2026-05-06T06:28:30.817Z)
Latitude
-0.00003°
Longitude
157.90187°
Altitude
471.813 km
Speed
7.631 km/s
True Right ascension
07h 56m 39s
True Declination
0° 00' 00"
Sunlit
Object was in daylight at epoch
Visualization orbit readout
Latitude
Unknown
Longitude
Unknown
Altitude
Unknown
Speed
Unknown
Apparent Right ascension
Unknown
Apparent Declination
Unknown
Sunlit
N/A
Visualization observer readout
Local Sidereal Time
14:42:49
Azimuth
Unknown
Elevation
Unknown
Doppler factor
Unknown
Orbital elements
Apogee altitude
471.944 km
Perigee altitude
470.096 km
Semi-major axis
6,849.157 km
Eccentricity
0.00013
Inclination
53.1615°
RAAN
119.163°
Arg. of periapsis
99.3652°
True anomaly
260.73494°
Mean anomaly
260.7502°
Eccentric anomaly
260.74257°
Mean motion
3.82902 °/min
Orbital period
94.02 mins
BSTAR
-0.000025032
Loading maneuver chart data...
Computing Atmospheric mass density...
Loading historical data...
Loading historical data...
Loading historical data...
Loading historical data...
Loading historical data...
Loading historical data...
Loading historical data...

Documentation

Showing up to 5 results
|